EW6866 Weather Reports


time (UTC)temp
F
wind
direction
speed
knots
gust
knots
rain 1hr
in
rain 24hr
in
rain mn
in
humidity
%
barometer
mb
20260504033027 54 284 0.0 4.3 0.00 0.00 0.00 84 1017.4
20260504031526 53 294 0.0 1.7 0.00 0.00 0.00 85 1017.5
20260504030005 53 290 0.0 1.7 0.00 0.00 0.00 85 1017.6
20260504024505 52 304 0.0 0.9 0.00 0.00 0.00 84 1017.7
20260504023004 52 306 0.0 1.7 0.00 0.00 0.00 84 1017.6
20260504021505 50 278 0.0 0.9 0.00 0.00 0.00 87 1017.4
20260504020005 49 0 0.0 0.0 0.00 0.00 0.00 79 1017.3
20260504014507 50 0 0.0 0.0 0.00 0.01 0.00 78 1017.0
20260504013005 50 0 0.0 0.0 0.00 0.01 0.00 78 1016.7
20260504011504 51 0 0.0 0.0 0.00 0.01 0.00 76 1016.5
20260504010026 52 0 0.0 0.0 0.00 0.01 0.00 75 1016.3
20260504004505 52 0 0.0 0.0 0.00 0.01 0.00 72 1016.0
20260504003005 53 0 0.0 0.0 0.00 0.01 0.00 70 1016.0
20260504001504 54 0 0.0 0.0 0.00 0.01 0.00 70 1015.8
20260504000005 55 0 0.0 0.0 0.00 0.01 0.00 66 1015.7
20260503234505 56 0 0.0 0.0 0.00 0.01 0.00 63 1015.6
20260503233026 58 0 0.0 0.0 0.00 0.01 0.00 61 1015.4
20260503231505 59 0 0.0 0.0 0.00 0.01 0.00 56 1015.3
20260503230004 60 0 0.0 0.0 0.00 0.01 0.00 53 1015.2
20260503224504 61 129 0.0 0.9 0.00 0.01 0.00 50 1015.2
20260503223004 61 157 0.0 5.2 0.00 0.01 0.00 47 1015.1
20260503221505 62 151 0.0 1.7 0.00 0.01 0.00 49 1015.2
20260503220026 62 116 0.0 2.6 0.00 0.01 0.00 48 1015.2
20260503214505 63 136 0.9 4.3 0.00 0.01 0.00 45 1015.1
20260503213005 64 100 0.9 3.5 0.00 0.01 0.00 47 1015.0
20260503211504 65 138 0.9 5.2 0.00 0.01 0.00 44 1014.9
20260503210005 66 107 0.0 1.7 0.00 0.01 0.00 43 1015.0
20260503204504 66 99 0.9 4.3 0.00 0.02 0.00 44 1014.9
20260503203004 66 133 0.9 4.3 0.00 0.02 0.00 44 1015.0
20260503201505 66 180 0.9 5.2 0.00 0.02 0.00 44 1015.1
20260503200005 67 130 0.0 3.5 0.00 0.03 0.00 46 1015.3
20260503194504 66 117 0.9 1.7 0.00 0.03 0.00 45 1015.5
20260503193004 65 154 0.9 4.3 0.00 0.04 0.00 45 1015.5
20260503191526 65 152 0.9 6.1 0.00 0.04 0.00 46 1015.9
20260503190025 65 149 0.9 5.2 0.00 0.04 0.00 44 1016.1
20260503184525 65 157 0.9 4.3 0.00 0.04 0.00 45 1016.1
20260503183025 65 177 0.9 7.0 0.00 0.04 0.00 45 1016.3
20260503181505 65 135 0.9 8.7 0.00 0.04 0.00 50 1016.4
20260503180005 63 134 1.7 7.0 0.00 0.04 0.00 47 1016.4
20260503174504 64 130 0.9 5.2 0.00 0.04 0.00 51 1016.4
20260503173004 62 133 0.9 4.3 0.00 0.05 0.00 49 1016.4
20260503171525 63 117 0.9 7.0 0.00 0.06 0.00 48 1016.6
20260503081504 44 0 0.0 0.0 0.00 0.19 0.00 96 1012.7
20260503071505 45 0 0.0 0.0 0.00 0.19 0.00 95 1012.1
20260503054505 48 0 0.0 0.0 0.00 0.19 0.00 95 1011.7
20260503053005 49 0 0.0 0.0 0.00 0.19 0.00 95 1011.5
20260503051527 49 0 0.0 0.0 0.00 0.19 0.00 95 1011.6
20260503050005 49 0 0.0 0.0 0.00 0.19 0.00 95 1011.8
20260503044506 49 0 0.0 0.0 0.00 0.19 0.00 95 1011.6
20260503043026 50 0 0.0 0.0 0.00 0.19 0.00 95 1011.6
20260503041505 50 0 0.0 0.0 0.00 0.19 0.00 95 1011.6
20260503040006 50 0 0.0 0.0 0.00 0.19 0.00 95 1011.6
20260503034526 50 0 0.0 0.0 0.00 0.19 0.19 95 1011.8